Weather in Kukui

Russia / Udmurt Republic     57°00′02″N   53°48′22″E
temp.,
°C
wind,
m/s
gust,
m/s
humid.,
%
clouds,
%
prec.,
mm/h
press.,
hPa
HPBL,
m
17 april, sat
sat1701:00+2ne410680 0.0 1028224
04:000nne38735 0.0 1028157
07:00+2nne410615 0.0 1029313
10:00+7ne67455 0.0 1028852
13:00+10nne564222 0.0 10271216
16:00+10nne454319 0.0 10261352
19:00+8n22575 0.0 102518
22:00+5nnw22695 0.0 102520
18 april, sun
sun1801:00+4nnw33750 0.0 102428
04:00+2nw34813 0.0 102469
07:00+4nnw310765 0.0 1023328
10:00+5ne7869100 0.0 10251051
13:00+6nne78360 0.0 10261495
16:00+6ne79375 0.0 10281641
19:00+5ne61047100 0.0 1028561
22:00+2ene611515 0.0 1031494
19 april, mon
mon1901:00−1ene511543 0.0 1032381
04:00−2ene49571 0.0 1034337
07:000ene510440 0.0 1035785
10:00+3e79290 0.0 10351518
13:00+5e68270 0.0 10351727
16:00+6e67280 0.0 10341771
19:00+3ene37410 0.0 1035155
22:000e35500 0.0 103689
20 april, tue
tue2001:00−1ene23520 0.0 103743
04:00−1e22530 0.0 103729
07:00+1ese22450 0.0 1038163
10:00+5se22320 0.0 1038965
13:00+7se12290 0.0 10371268
16:00+8e22280 0.0 10351172
19:00+6ene11400 0.0 103410
22:00+3ese22480 0.0 103411
21 april, wed
wed2101:00+1s11530 0.0 103510
04:00+1ese22535 0.0 103515
07:00+3se35505 0.0 1035162
10:00+8sse5635100 0.0 1034860
13:00+11sse673068 0.0 10321257
16:00+12sse682810 0.0 10311403
19:00+9sse4942100 0.0 1030194
22:00+5sse4125554 0.0 1031249